Погода в Уотерфорде

Ирландия     52°15′54″N   7°05′34″W
темп.,
°C
ветер,
м/с
пор.,
м/с
влажн.,
%
обл.,
%
осадки,
мм/ч
давл.,
гПа
погр.,
м
29 июня, ср
ср2901:00+12юз4884100 0.0 1007404
04:00+11юз2491100 0.1 1007138
07:00+12сз2386100 0.2 1007153
10:00+14зсз337274 0.0 1008838
13:00+16юз337199 0.7 1008994
16:00+15зсз4584100 1.9 1008672
19:00+14зсз478485 3.4 1008471
22:00+12сз3890100 0.7 1010274
30 июня, чт
чт3001:00+10сз3992100 0.7 1010226
04:00+8сз3893100 0.0 1010201
07:00+9сз379395 0.0 1011218
10:00+14сз44714 0.0 1011801
13:00+16зюз346198 0.1 10111274
16:00+15юз657064 0.1 1011901
19:00+15з458584 0.8 1012404
22:00+12зсз389164 0.3 1013172
1 июля, пт
пт101:00+10зсз389259 0.3 1014167
04:00+9зсз2393100 0.0 101466
07:00+10з129135 0.0 101595
10:00+15юз347347 0.1 1015561
13:00+16юз776643 0.1 10151248
16:00+16юз897044 0.0 1015958
19:00+14ююз71292100 0.3 1015815
22:00+13юз7139525 0.2 1015517
2 июля, сб
сб201:00+13зюз369484 0.6 1015216
04:00+11зюз4889100 0.2 1015218
07:00+11юз4888100 0.2 1016280
10:00+15зюз467626 0.0 1017793
13:00+16зюз5669100 0.5 10171282
16:00+17зсз567095 0.5 10181101
19:00+16зсз576823 0.6 1019923
22:00+12сз49875 0.0 1021281
3 июля, вс
вс301:00+10зсз39968 0.0 1021226
04:00+9сз379725 0.0 1022186
07:00+11сз4893100 0.0 1023381
10:00+15сз567013 0.0 1023940
13:00+16сз346598 0.1 10231205
16:00+16зсз346795 0.0 1023945
19:00+16зсз467295 0.1 1023454
22:00+13зсз358358 0.1 102480